Weather History for Sidney-Richland, MT

Change the Weather History Date:

Monday, July 15, 2013

  Actual Average Record
Temperature  
Mean Temperature 70 °F -  
Max Temperature 84 °F 86 °F 102 °F (2006)
Min Temperature 57 °F 55 °F 39 °F (1912)
Cooling Degree Days 6    
Growing Degree Days 20 (Base 50)    
Moisture  
Dew Point 64 °F    
Average Humidity 75    
Maximum Humidity 88    
Minimum Humidity 62    
Precipitation  
Precipitation 0.00 in - - ()
Sea Level Pressure  
Sea Level Pressure 30.03 in    
Wind  
Wind Speed 6 mph (SE)    
Max Wind Speed 18 mph    
Max Gust Speed 23 mph    
Visibility 10 miles    
Events      
Averages and records for this station are not official NWS values.
T = Trace of Precipitation, MM = Missing Value Source: NWS Daily Summary

Daily Weather History Graph

Daily Weather History Graph

Search for Another Location

Airport:

Trip Planner

Search our weather history database for the weather conditions in past years. The results will help you decide how hot, cold, wet, or windy it might be!

Date:

Astronomy

Jul. 15, 2013 Rise Set
Actual Time 5:14 AM MDT 8:50 PM MDT
Civil Twilight 4:35 AM MDT 9:29 PM MDT
Nautical Twilight 3:43 AM MDT 10:21 PM MDT
Astronomical Twilight 2:31 AM MDT 11:31 PM MDT
Moon 1:13 PM MDT (7/15) No Moon Set
Length of Visible Light 16h 53m
Length of Day
15h 36m
Waxing Crescent, 46% of the Moon is Illuminated
Jul 15
Waxing Crescent
Jul 15
First Quarter
Jul 22
Full
Jul 29
Last Quarter
Aug 6
New

Hourly Weather History & Observations

Time (MDT) Temp. Heat Index Dew Point Humidity Pressure Visibility Wind Dir Wind Speed Gust Speed Precip Events Conditions
12:15 AM 59.0 °F - 53.6 °F 82% 30.21 in 10.0 mi Calm Calm - N/A   Clear
12:55 AM 57.2 °F - 53.6 °F 88% 30.20 in 10.0 mi Calm Calm - N/A   Mostly Cloudy
1:15 AM 60.8 °F - 55.4 °F 82% 30.19 in 10.0 mi Calm Calm - N/A   Overcast
1:55 AM 62.6 °F - 55.4 °F 77% 30.18 in 10.0 mi Calm Calm - N/A   Overcast
2:15 AM 62.6 °F - 55.4 °F 77% 30.17 in 10.0 mi Calm Calm - N/A   Overcast
2:35 AM 60.8 °F - 55.4 °F 82% 30.17 in 10.0 mi SE 3.5 mph - N/A   Overcast
2:55 AM 62.6 °F - 57.2 °F 82% 30.17 in 10.0 mi Calm Calm - N/A   Overcast
3:16 AM 62.6 °F - 57.2 °F 82% 30.16 in 10.0 mi East 3.5 mph - N/A   Overcast
3:35 AM 62.6 °F - 55.4 °F 77% 30.16 in 10.0 mi Calm Calm - N/A   Overcast
3:55 AM 62.6 °F - 57.2 °F 82% 30.15 in 10.0 mi NE 4.6 mph - N/A   Overcast
4:35 AM 62.6 °F - 57.2 °F 82% 30.13 in 10.0 mi ESE 3.5 mph - N/A   Overcast
4:55 AM 62.6 °F - 57.2 °F 82% 30.13 in 10.0 mi Calm Calm - N/A   Overcast
5:15 AM 62.6 °F - 57.2 °F 82% 30.12 in 10.0 mi Calm Calm - N/A   Overcast
5:35 AM 62.6 °F - 59.0 °F 88% 30.12 in 10.0 mi Calm Calm - N/A   Overcast
5:56 AM 62.6 °F - 59.0 °F 88% 30.11 in 10.0 mi SSE 3.5 mph - N/A   Overcast
6:16 AM 64.4 °F - 60.8 °F 88% 30.11 in 10.0 mi SSE 4.6 mph - N/A   Overcast
6:35 AM 64.4 °F - 60.8 °F 88% 30.11 in 10.0 mi SE 6.9 mph - N/A   Overcast
6:55 AM 66.2 °F - 60.8 °F 83% 30.10 in 10.0 mi SE 6.9 mph - N/A   Overcast
7:15 AM 66.2 °F - 60.8 °F 83% 30.10 in 10.0 mi SE 10.4 mph - N/A   Overcast
7:35 AM 66.2 °F - 62.6 °F 88% 30.10 in 10.0 mi SSE 13.8 mph - N/A   Overcast
7:55 AM 68.0 °F - 62.6 °F 83% 30.09 in 10.0 mi SSE 12.7 mph - N/A   Overcast
8:15 AM 68.0 °F - 62.6 °F 83% 30.08 in 10.0 mi SSE 10.4 mph - N/A   Overcast
8:35 AM 69.8 °F - 64.4 °F 83% 30.08 in 10.0 mi SSE 11.5 mph - N/A   Overcast
8:55 AM 71.6 °F - 64.4 °F 78% 30.07 in 10.0 mi SSE 12.7 mph - N/A   Overcast
9:15 AM 73.4 °F - 64.4 °F 73% 30.06 in 10.0 mi SSE 12.7 mph - N/A   Mostly Cloudy
9:35 AM 75.2 °F - 66.2 °F 73% 30.05 in 10.0 mi SSE 17.3 mph - N/A   Mostly Cloudy
9:55 AM 73.4 °F - 66.2 °F 78% 30.04 in 10.0 mi SSE 17.3 mph 20.7 mph N/A   Overcast
10:15 AM 75.2 °F - 66.2 °F 73% 30.04 in 10.0 mi South 16.1 mph 20.7 mph N/A   Overcast
10:35 AM 75.2 °F - 66.2 °F 73% 30.05 in 10.0 mi SSE 15.0 mph 21.9 mph N/A   Overcast
10:55 AM 75.2 °F - 66.2 °F 73% 30.04 in 10.0 mi SSE 12.7 mph 20.7 mph N/A   Overcast
11:15 AM 75.2 °F - 66.2 °F 73% 30.04 in 10.0 mi SSE 13.8 mph - N/A   Overcast
11:36 AM 77.0 °F - 66.2 °F 69% 30.03 in 10.0 mi SSE 11.5 mph - N/A   Overcast
11:55 AM 80.6 °F 83.2 °F 68.0 °F 65% 30.03 in 10.0 mi SSE 12.7 mph 20.7 mph N/A   Overcast
12:15 PM 78.8 °F - 68.0 °F 69% 30.02 in 10.0 mi SSE 15.0 mph - N/A   Overcast
12:35 PM 80.6 °F 83.9 °F 69.8 °F 70% 30.02 in 10.0 mi SSE 15.0 mph 19.6 mph N/A   Mostly Cloudy
12:55 PM 80.6 °F 83.9 °F 69.8 °F 70% 30.01 in 10.0 mi SSE 15.0 mph 18.4 mph N/A   Overcast
1:15 PM 82.4 °F 86.3 °F 69.8 °F 66% 30.00 in 10.0 mi SSE 17.3 mph 21.9 mph N/A   Mostly Cloudy
1:35 PM 80.6 °F 83.9 °F 69.8 °F 70% 29.99 in 10.0 mi SSE 13.8 mph 19.6 mph N/A   Scattered Clouds
1:55 PM 82.4 °F 86.3 °F 69.8 °F 66% 29.98 in 10.0 mi SSE 15.0 mph - N/A   Partly Cloudy
2:35 PM 80.6 °F 83.2 °F 68.0 °F 65% 29.96 in 10.0 mi SSE 18.4 mph 23.0 mph N/A   Clear
3:15 PM 80.6 °F 83.9 °F 69.8 °F 70% 29.96 in 10.0 mi SSE 13.8 mph - N/A   Clear
3:35 PM 84.2 °F 89.6 °F 71.6 °F 66% 29.96 in 10.0 mi SSE 16.1 mph 19.6 mph N/A   Partly Cloudy
4:15 PM 84.2 °F 88.4 °F 69.8 °F 62% 29.92 in 10.0 mi SSE 16.1 mph 21.9 mph N/A   Clear
4:35 PM 84.2 °F 89.6 °F 71.6 °F 66% 29.92 in 10.0 mi SSE 17.3 mph 23.0 mph N/A   Clear
4:55 PM 84.2 °F 89.6 °F 71.6 °F 66% 29.92 in 10.0 mi SSE 12.7 mph 17.3 mph N/A   Partly Cloudy
5:15 PM 84.2 °F 89.6 °F 71.6 °F 66% 29.92 in 10.0 mi SSE 12.7 mph 19.6 mph N/A   Partly Cloudy
5:35 PM 84.2 °F 88.4 °F 69.8 °F 62% 29.91 in 10.0 mi SSE 17.3 mph - N/A   Clear
5:55 PM 84.2 °F 89.6 °F 71.6 °F 66% 29.90 in 10.0 mi South 13.8 mph - N/A   Clear
6:35 PM 84.2 °F 89.6 °F 71.6 °F 66% 29.90 in 10.0 mi SSE 11.5 mph - N/A   Clear
7:35 PM 82.4 °F 87.2 °F 71.6 °F 70% 29.89 in 10.0 mi SSE 8.1 mph - N/A   Clear
7:55 PM 82.4 °F 87.2 °F 71.6 °F 70% 29.88 in 10.0 mi SSE 9.2 mph - N/A   Clear
8:35 PM 80.6 °F 84.6 °F 71.6 °F 74% 29.90 in 10.0 mi NE 8.1 mph - N/A   Clear
8:55 PM 75.2 °F - 64.4 °F 69% 29.92 in 10.0 mi NNE 15.0 mph 21.9 mph N/A   Clear
9:15 PM 71.6 °F - 62.6 °F 73% 29.92 in 10.0 mi NE 11.5 mph - N/A   Clear
9:35 PM 71.6 °F - 62.6 °F 73% 29.92 in 10.0 mi ENE 5.8 mph - N/A   Clear
9:55 PM 71.6 °F - 62.6 °F 73% 29.93 in 10.0 mi NE 6.9 mph - N/A   Clear
10:15 PM 71.6 °F - 64.4 °F 78% 29.92 in 10.0 mi North 3.5 mph - N/A   Clear
10:35 PM 71.6 °F - 64.4 °F 78% 29.92 in 10.0 mi ENE 3.5 mph - N/A   Clear
10:55 PM 69.8 °F - 62.6 °F 78% 29.92 in 10.0 mi North 3.5 mph - N/A   Clear
11:15 PM 71.6 °F - 64.4 °F 78% 29.91 in 10.0 mi NNW 3.5 mph - N/A   Clear
11:35 PM 69.8 °F - 62.6 °F 78% 29.91 in 10.0 mi NNW 3.5 mph - N/A   Clear
11:55 PM 69.8 °F - 62.6 °F 78% 29.91 in 10.0 mi NNW 3.5 mph - N/A   Clear